Terug naar catalogus

STARLINK-32263

ActiefCommunicatieVLEO
NORAD 60371·PAYLOAD·🇺🇸 United States

Gelanceerd Aug 4, 2024 vanaf Vandenberg Space Force Base

Loading…

Volgende Passages (komende 24 uur)

TLE

VersSource: CelesTrak SupGP

Epoch: Sep 15, 2026, 03:41 UTC

1 60371C 24138S   26258.15395833  .00063625  00000+0  18801-2 0  2584
2 60371  53.1573 148.6685 0001228  79.1826  81.3976 15.34353418    19

Volg STARLINK-32263 in realtime met AllMySat

Download on the App Store